EB2EMZ-W Weather Reports


time (UTC)temp
C
wind
direction
speed
KPH
gust
KPH
rain 1hr
cm
rain 24hr
cm
rain mn
cm
humidity
%
barometer
mb
20260507225157 12 118 0.0 0.0 0.00 0.00 0.00 78 994.0
20260507222137 12 118 0.0 0.0 0.00 0.00 0.00 78 994.0
20260507215117 12 118 0.0 0.0 0.00 0.00 0.00 75 994.0
20260507212056 13 118 0.0 0.0 0.00 0.00 0.00 73 994.0
20260507205035 13 118 0.0 0.0 0.00 0.00 0.00 73 993.0
20260507202016 14 118 0.0 0.0 0.00 0.00 0.00 67 993.0
20260507194955 15 340 0.0 0.0 0.00 0.00 0.00 59 992.0
20260507191935 16 340 0.0 0.0 0.00 0.00 0.00 55 993.0
20260507184915 16 318 0.0 3.2 0.00 0.00 0.00 52 993.0
20260507181854 18 325 0.0 0.0 0.00 0.00 0.00 38 994.0
20260507174834 18 63 0.0 0.0 0.00 0.00 0.00 40 993.0
20260507171814 18 62 0.0 0.0 0.00 0.00 0.00 37 992.0
20260507164755 18 62 0.0 0.0 0.00 0.00 0.00 40 993.0
20260507161733 17 31 1.6 3.2 0.00 0.00 0.00 38 993.0
20260507154713 18 322 3.2 8.0 0.00 0.00 0.00 27 993.0
20260507151653 23 281 0.0 0.0 0.00 0.00 0.00 23 992.0
20260507144632 23 106 0.0 0.0 0.00 0.00 0.00 28 992.0
20260507141612 22 280 0.0 0.0 0.00 0.00 0.00 33 992.0
20260507134552 21 263 0.0 0.0 0.00 0.00 0.00 33 993.0
20260507131532 23 334 0.0 0.0 0.00 0.10 0.00 30 993.0
20260507124511 24 334 0.0 0.0 0.00 0.10 0.00 29 993.0
20260507121453 22 334 0.0 0.0 0.00 0.10 0.00 32 994.0
20260507114433 21 334 0.0 0.0 0.00 0.10 0.00 33 994.0
20260507111412 21 334 0.0 0.0 0.00 0.10 0.00 34 995.0
20260507104351 20 334 0.0 0.0 0.00 0.10 0.00 34 995.0
20260507101331 18 334 0.0 0.0 0.00 0.10 0.00 39 995.0
20260507094311 17 334 0.0 0.0 0.00 0.10 0.00 43 996.0
20260507091250 17 334 0.0 0.0 0.00 0.10 0.00 44 995.5
20260507084229 16 334 0.0 0.0 0.00 0.10 0.00 51 995.1
20260507081210 15 334 0.0 0.0 0.00 0.10 0.00 58 995.0
20260507074150 12 333 0.0 0.0 0.00 0.10 0.00 72 995.0
20260507064113 10 334 0.0 0.0 0.00 0.10 0.00 77 996.0
20260507061054 10 334 0.0 0.0 0.00 0.10 0.00 80 996.0
20260507054033 10 333 0.0 0.0 0.00 0.10 0.00 80 996.0
20260507051013 10 333 0.0 0.0 0.00 0.10 0.00 80 996.0
20260507043953 10 333 0.0 0.0 0.00 0.10 0.00 79 996.0
20260507040934 10 333 0.0 0.0 0.00 0.10 0.00 80 996.0
20260507033914 10 334 0.0 0.0 0.00 0.10 0.00 81 996.0
20260507030852 10 334 0.0 0.0 0.00 0.10 0.00 82 996.0
20260507023833 11 334 0.0 0.0 0.00 0.10 0.00 83 996.0
20260507020812 11 333 0.0 0.0 0.00 0.10 0.00 84 996.0
20260507013752 11 333 0.0 0.0 0.00 0.10 0.00 85 997.0
20260507010732 10 333 0.0 0.0 0.00 0.10 0.00 85 997.0
20260507003712 11 334 0.0 0.0 0.00 0.10 0.00 84 997.0
20260507000654 11 334 0.0 0.0 0.00 0.10 0.00 83 997.0